Location: Podia
(1.5569°N, 32.3469°E)
Time: 14:28:27
(UTC+00:00)

ARGOS - Pass Details

Date: 01 June 2020
Orbit: 821 x 834 km, 98.5° (Epoch: 04 July)

Event Time Altitude Azimuth Distance (km) Brightness Sun altitude
Exits shadow 17:52:46 63° 24° (NNE) 910 3.2 -27.8°
Drops below altitude 10° 17:57:22 10° 353° (N) 2,414 5.9 -28.9°
Sets 17:59:43 0° 352° (N) 3,346 6.8 -29.4°
